Regional Weather Roundup
Issued by NWS Charleston, SC

Current Version | Previous Version | Graphics & Text | Print | Product List | Glossary On
Versions: 1 2 3 4 5 6 7 8 9 10 11 12 13 14 15 16 17 18 19 20 21 22 23 24 25 26 27 28 29 30 31 32 33 34 35 36 37 38 39 40 41 42 43 44 45 46 47 48 49 50
000 ASUS42 KCHS 211012 RWRCHS Regional Weather Roundup National Weather Service Charleston SC 600 AM EDT SAT APR 21 2018 NOTE: "fair" indicates few or no clouds below 12,000 feet with no significant weather and/or obstructions to visibility. Not all stations are quality controlled. Use data with caution, especially dewpoint observations. SCZ027-030-031-034>040-042>050-211100- ...Southeast South Carolina... CITY SKY/WX TMP DP RH WIND PRES REMARKS N Charleston FAIR 48 44 86 NE6 30.32S Waterfront Prk NOT AVBL Mount Pleasant FAIR 46 46 100 CALM 30.33R Johns Island FAIR 57 43 58 E8G16 30.32R Pinopolis N/A 54 46 76 VRB3 30.25R Moncks Corner FAIR 43 39 87 NE5 30.34R Summerville FAIR 41 39 93 CALM 30.35R Beaufort MCAS FAIR 55 48 77 NE8 30.31R Beaufort Arpt FAIR 55 48 76 NE7 30.30S Hilton Head Is FAIR 61 46 59 NE13G18 30.30R Walterboro FAIR 39 37 93 NE3 30.34R Allendale FAIR 45 43 93 CALM 30.32S ...Southern Midlands and Pee Dee... CITY SKY/WX TMP DP RH WIND PRES REMARKS Georgetown FAIR 43 41 93 NE5 30.36R Kingstree FAIR 37 36 93 CALM 30.36S Orangeburg FAIR 41 39 93 CALM 30.35R Barnwell FAIR 39 37 93 CALM 30.34R Aiken FAIR 36 34 93 CALM 30.38R Manning FAIR 36 34 93 CALM 30.36R Columbia FAIR 40 37 89 CALM 30.36R Sumter FAIR 40 36 87 CALM 30.34R Florence FAIR 41 39 93 N3 30.37R Myrtle Beach FAIR 57 38 48 E6 30.37R N Myrtle Beach FAIR 43 42 97 CALM 30.36R $$ GAZ063-065-086>088-099>101-113>116-118-119-134>141-150-211100- ...Southeast Georgia... CITY SKY/WX TMP DP RH WIND PRES REMARKS Savannah Arpt MOCLDY 54 47 77 N5 30.29S Hunter AAF MOCLDY 59 45 58 NE7 30.25S Fort Stewart CLOUDY 52 47 85 N5 30.26R Statesboro FAIR 47 32 56 CALM 30.31R Sylvania FAIR 45 45 100 E5 30.32S Claxton FAIR 45 44 97 CALM 30.29S ...CSRA, Central and far Southeast Georgia... CITY SKY/WX TMP DP RH WIND PRES REMARKS Thomson FAIR 36 35 94 CALM 30.39R Augusta-Bush FAIR 38 37 97 CALM 30.34R Augusta-Daniel FAIR 50 40 68 NE5 30.34R Swainsboro FAIR 46 45 93 NE3 30.32R Vidalia FAIR 50 46 87 NE6 30.29R Eastman FAIR 44 38 78 CALM 30.31R Hazlehurst FAIR 52 47 82 NE3 30.27R Alma MOCLDY 55 48 77 CALM 30.26R Waycross CLOUDY 57 51 81 NE7 30.25S Jesup CLOUDY 57 48 72 CALM 30.27R Baxley CLOUDY 52 50 93 E7 30.27R Brunswick CLOUDY 63 50 63 NE13 30.25R Saint Simons CLOUDY 64 54 69 NE13 30.23S $$ SCZ027-028-034-036>038-045-046-048>050-GAZ119-141-211100- ...Lake and Supplemental Coastal Observations... STATION/POSITION TIME TEMP WIND PRES WAVE SWELL AIR SEA DIR/SP/G HT/PER HT/PER/DIR (UTC) (F) (DEG/KT/KT) (MB) (FT/S) (FT/S/D) Winyah Bay 0845 60 90/ 12 1027.0 Lake Murray 0920 46 CALM / 2 1027.1 ACE Basin NERRS 0845 53 350/ 1 N/A Fort Pulaski 0942 62 65 80/ 18/ 22 1025.5F Sapelo Island 0900 63 60/ 9 1024.0 $$ ANZ835-935-AMZ111-154-330-350-352-354-370-450-454-472-211100- ...C-MAN and Buoy Observations... STATION/POSITION TIME TEMP WIND PRES WAVE SWELL AIR SEA DIR/SP/G HT/PER HT/PER/DIR (UTC) (F) (DEG/KT/KT) (MB) (FT/S) (FT/S/D) Buoy 41004 0950 63 67 70/ 17/ 21 1025.7F 5/ 8 3/110/ 8 Buoy 41008 0950 65 64 60/ 17/ 21 1023.6R 5/ 6 3/110/ 8 Folly Beach CMAN 1000 61 70/ 18/ 21 1027.0R Capers Nearshore 0908 62 63 90/ 16/ 21 1026.7R Fripp Nearshore 0908 62 63 80/ 16/ 23 1025.1R STATION/POSITION TIME TEMP WIND PRES WAVE SWELL AIR SEA DIR/SP/G HT/PER HT/PER/DIR (UTC) (F) (DEG/KT/KT) (MB) (FT/S) (FT/S/D) 5E St. Marys GA 1000 66 N/A 6/ 7 2/ 80/11 Frying Pan Buoy 0950 61 66 50/ 16/ 19 1027.4R 3/ 8 2/100/ 8 Buoy 41025 1000 56 69 20/ 12/ 17 1028.9 Cape Lookout NC 0900 60/ 10/ 12 1028.6R Buoy 41002 0950 63 71 50/ 14/ 21 1025.2R 6/ 7 3/ 7 Buoy 41010 0950 72 74 60/ 23/ 29 1021.3R 9/ 8 3/120/15 St Augustine FL 1000 69 66 100/ 18/ 21 1021.4S $$

USA.gov is the U.S. government's official web portal to all federal, state and local government web resources and services.